Hourly Data Report for October 05, 2016

All times are specified in Local Standard Time (LST). Add 1 hour to adjust for Daylight Saving Time where and when it is observed.

SAINT JOHN A
NEW BRUNSWICK

45°18'58.000" N
65°53'24.000" W
108.80 m
8104901
71609
YSJ

Download Data

Hourly Data (October 2016)
Hourly Data Report for October 5, 2016
Temp Definition
°C
Dew Point Temp Definition
°C
Rel Hum Definition
%
Wind Dir Definition
10's deg

Wind Spd Definition
km/h
Visibility Definition
km
Stn Press Definition
kPa
Hmdx Definition


Wind Chill Definition


Weather Definition


TIME
00:00 Legend Double Dagger -1.1 -1.1 100 6 3 24.1 101.61   -2 LegendNANA
01:00 Legend Double Dagger -0.9 -0.9 100 8 3 2.4 101.59   -2 LegendNANA
02:00 Legend Double Dagger -2.5 -2.5 100 36 3 1.6 101.60   -4 Fog
03:00 Legend Double Dagger -1.4 -1.4 100 1 5 1.6 101.53   -3 Fog
04:00 Legend Double Dagger -0.5 -0.5 100 6 3 1.0 101.50   -1 Fog
05:00 Legend Double Dagger -1.6 -1.6 100 0 1 12.9 101.50   -2 Clear
06:00 Legend Double Dagger -1.8 -1.8 100 3 5 24.1 101.51   -4 LegendNANA
07:00 Legend Double Dagger -0.9 -0.9 100 2 5 24.1 101.55   -3 LegendNANA
08:00 Legend Double Dagger 4.8 4.8 100 36 1 24.1 101.55     Mainly Clear
09:00 Legend Double Dagger 10.6 6.0 73 36 3 24.1 101.58     LegendNANA
10:00 Legend Double Dagger 14.0 7.1 63 29 4 24.1 101.56     LegendNANA
11:00 Legend Double Dagger 15.9 7.2 56 27 10 24.1 101.50     Mainly Clear
12:00 Legend Double Dagger 17.2 8.7 57 27 9 24.1 101.46     LegendNANA
13:00 Legend Double Dagger 17.5 9.0 57 18 14 24.1 101.38     LegendNANA
14:00 Legend Double Dagger 17.1 8.4 56 21 18 24.1 101.31     Mainly Clear
15:00 Legend Double Dagger 17.1 8.4 56 21 14 24.1 101.24     LegendNANA
16:00 Legend Double Dagger 15.9 7.7 58 23 16 24.1 101.18     LegendNANA
17:00 Legend Double Dagger 14.7 7.8 63 21 15 24.1 101.16     Clear
18:00 Legend Double Dagger 11.6 7.9 78 20 4 24.1 101.17     LegendNANA
19:00 Legend Double Dagger 8.6 7.5 93 21 5 24.1 101.17     LegendNANA
20:00 Legend Double Dagger 7.2 6.3 94 36 3 24.1 101.20     Clear
21:00 Legend Double Dagger 5.4 5.4 100 36 1 24.1 101.21     LegendNANA
22:00 Legend Double Dagger 4.0 4.0 100 36 1 24.1 101.20     LegendNANA
23:00 Legend Double Dagger 3.0 3.0 100 36 3 24.1 101.18     Clear

Notes on Data Quality.

Legend

  • E = Estimated
  • M = Missing
  • NA = Not Available
  • ‡ = Partner data that is not subject to review by the National Climate Archives
Date modified: